Weather History for Marathon, FL

Change the Weather History Date:

Saturday, May 25, 2013

  Actual Average Record
Temperature  
Mean Temperature 85 °F 83 °F  
Max Temperature 91 °F 88 °F 91 °F (2003)
Min Temperature 79 °F 78 °F 72 °F (2001)
Degree Days  
Heating Degree Days 0 0  
Month to date heating degree days 0 0  
Since 1 July heating degree days 36 81  
Cooling Degree Days 20 18  
Month to date cooling degree days 435 395  
Year to date cooling degree days 1733 1431  
Growing Degree Days 34 (Base 50)    
Moisture  
Dew Point 68 °F    
Average Humidity 61    
Maximum Humidity 74    
Minimum Humidity 48    
Precipitation  
Precipitation 0.00 in 0.10 in 0.73 in (2001)
Month to date precipitation 5.15 2.56  
Year to date precipitation 13.04 11.15  
Snow  
Snow 0.00 in - - ()
Month to date snowfall 0.0  
Since 1 July snowfall 0.0  
Snow Depth 0.00 in    
Sea Level Pressure  
Sea Level Pressure 30.08 in    
Wind  
Wind Speed 10 mph (ENE)    
Max Wind Speed 20 mph    
Max Gust Speed 25 mph    
Visibility 10 miles    
Events      
T = Trace of Precipitation, MM = Missing Value Source: NWS Daily Summary

Daily Weather History Graph

Daily Weather History Graph

Search for Another Location

Airport:

Trip Planner

Search our weather history database for the weather conditions in past years. The results will help you decide how hot, cold, wet, or windy it might be!

Date:

Astronomy

May. 25, 2013 Rise Set
Actual Time 6:36 AM EDT 8:06 PM EDT
Civil Twilight 6:11 AM EDT 8:31 PM EDT
Nautical Twilight 5:41 AM EDT 9:01 PM EDT
Astronomical Twilight 5:10 AM EDT 9:32 PM EDT
Moon 8:53 PM EDT 7:00 AM EDT
Length of Visible Light 14h 20m
Length of Day
13h 29m
Full, 100% of the Moon is Illuminated
May 25
Full
May 31
Last Quarter
Jun 8
New
Jun 16
First Quarter
Jun 23
Full

Hourly Weather History & Observations

Time (EDT) Temp. Heat Index Dew Point Humidity Pressure Visibility Wind Dir Wind Speed Gust Speed Precip Events Conditions
12:53 AM 82.0 °F 84.5 °F 66.9 °F 60% 30.06 in 10.0 mi Calm Calm - N/A   Clear
1:53 AM 82.0 °F 84.5 °F 66.9 °F 60% 30.05 in 10.0 mi Calm Calm - N/A   Clear
2:53 AM 82.9 °F 84.6 °F 64.9 °F 54% 30.04 in 10.0 mi ESE 4.6 mph - N/A   Clear
3:53 AM 81.0 °F 83.8 °F 68.0 °F 65% 30.03 in 10.0 mi Calm Calm - N/A   Clear
4:53 AM 79.0 °F - 69.1 °F 72% 30.03 in 10.0 mi Calm Calm - N/A   Clear
5:53 AM 80.1 °F 82.9 °F 69.1 °F 69% 30.04 in 10.0 mi Calm Calm - N/A   Clear
6:53 AM 80.1 °F 82.9 °F 69.1 °F 69% 30.06 in 10.0 mi ENE 3.5 mph - N/A   Clear
7:53 AM 84.0 °F 88.4 °F 70.0 °F 63% 30.07 in 10.0 mi East 3.5 mph - N/A   Clear
8:53 AM 86.0 °F 90.7 °F 70.0 °F 59% 30.08 in 10.0 mi ENE 5.8 mph - N/A   Clear
9:53 AM 88.0 °F 92.9 °F 70.0 °F 55% 30.10 in 10.0 mi NE 8.1 mph - N/A   Clear
10:53 AM 89.1 °F 93.7 °F 69.1 °F 52% 30.11 in 10.0 mi NE 9.2 mph - N/A   Clear
11:53 AM 90.0 °F 95.4 °F 70.0 °F 52% 30.12 in 10.0 mi NE 11.5 mph - N/A   Clear
12:53 PM 89.1 °F 93.7 °F 69.1 °F 52% 30.12 in 10.0 mi ENE 10.4 mph - N/A   Mostly Cloudy
1:53 PM 90.0 °F 95.4 °F 70.0 °F 52% 30.11 in 10.0 mi East 11.5 mph 19.6 mph N/A   Scattered Clouds
2:53 PM 89.1 °F 94.1 °F 70.0 °F 53% 30.10 in 10.0 mi East 15.0 mph 21.9 mph N/A   Clear
3:53 PM 89.1 °F 94.1 °F 70.0 °F 53% 30.09 in 10.0 mi East 15.0 mph 21.9 mph N/A   Partly Cloudy
4:53 PM 87.1 °F 91.3 °F 69.1 °F 55% 30.08 in 10.0 mi ENE 15.0 mph 23.0 mph N/A   Clear
5:53 PM 88.0 °F 92.1 °F 69.1 °F 53% 30.07 in 10.0 mi ENE 16.1 mph 24.2 mph N/A   Scattered Clouds
6:53 PM 86.0 °F 87.3 °F 64.0 °F 48% 30.07 in 10.0 mi ENE 17.3 mph 21.9 mph N/A   Clear
7:53 PM 84.9 °F 86.6 °F 64.9 °F 51% 30.09 in 10.0 mi ENE 13.8 mph - N/A   Clear
8:53 PM 84.0 °F 84.9 °F 63.0 °F 49% 30.09 in 10.0 mi ENE 12.7 mph - N/A   Clear
9:53 PM 84.0 °F 84.5 °F 62.1 °F 47% 30.11 in 10.0 mi ENE 13.8 mph 20.7 mph N/A   Clear
10:53 PM 82.9 °F 84.6 °F 64.9 °F 54% 30.12 in 10.0 mi ENE 17.3 mph 24.2 mph N/A   Clear
11:53 PM 82.9 °F 84.6 °F 64.9 °F 54% 30.13 in 10.0 mi ENE 17.3 mph 24.2 mph N/A   Clear